Fort Smith, AR

5:47 PM CST on November 20, 2017 (GMT -0600)
Fort Smith Regional

Weather History for KFSM - September, 2013

Change the Weather History Date:

Friday, September 13, 2013

  Actual Average Record
Temperature  
Mean Temperature 78 °F 75 °F  
Max Temperature 89 °F 86 °F 101 °F (1893)
Min Temperature 67 °F 64 °F 42 °F (1902)
Degree Days  
Heating Degree Days 0 0  
Month to date heating degree days 0 0  
Since 1 July heating degree days 0 0  
Cooling Degree Days 13 10  
Month to date cooling degree days 237 159  
Year to date cooling degree days 2040 1854  
Growing Degree Days 30 (Base 50)    
Moisture  
Dew Point 63 °F    
Average Humidity 62    
Maximum Humidity 87    
Minimum Humidity 36    
Precipitation  
Precipitation 0.07 in 0.14 in 1.95 in (2008)
Month to date precipitation 0.14 1.66  
Year to date precipitation 35.01 31.02  
Sea Level Pressure  
Sea Level Pressure 29.98 in    
Wind  
Wind Speed 7 mph (ENE)    
Max Wind Speed 18 mph    
Max Gust Speed 22 mph    
Visibility 9 miles    
Events Rain    
T = Trace of Precipitation, MM = Missing Value Source: NWS Daily Summary

Daily Weather History Graph

Daily Weather History Graph

Search for Another Location

Airport or City:

Trip Planner

Search our weather history database for the weather conditions in past years. The results will help you decide how hot, cold, wet, or windy it might be!

Date:

Astronomy

Sep. 13, 2013 Rise Set
Actual Time 6:58 AM CDT 7:26 PM CDT
Civil Twilight 6:33 AM CDT 7:52 PM CDT
Nautical Twilight 6:03 AM CDT 8:22 PM CDT
Astronomical Twilight 5:32 AM CDT 8:52 PM CDT
Moon 3:08 PM CDT (9/13) 12:38 AM CDT (9/13)
Length of Visible Light 13h 19m
Length of Day
12h 28m
First Quarter, 61% of the Moon is Illuminated
Sep 13
First Quarter
Sep 19
Full
Sep 26
Last Quarter
Oct 4
New
Oct 11
First Quarter

Hourly Weather History & Observations

Time (CDT) Temp. Heat Index Dew Point Humidity Pressure Visibility Wind Dir Wind Speed Gust Speed Precip Events Conditions
12:53 AM 75.0 °F - 71.1 °F 87% 29.98 in 8.0 mi ENE 4.6 mph - N/A   Clear
1:53 AM 75.9 °F - 72.0 °F 87% 29.99 in 7.0 mi ENE 4.6 mph - N/A   Clear
2:53 AM 75.0 °F - 71.1 °F 87% 29.98 in 7.0 mi ENE 4.6 mph - N/A   Clear
3:53 AM 75.0 °F - 71.1 °F 87% 29.98 in 7.0 mi ENE 4.6 mph - N/A   Clear
4:53 AM 75.0 °F - 71.1 °F 87% 29.98 in 6.0 mi ENE 3.5 mph - N/A   Clear
5:53 AM 75.0 °F - 71.1 °F 87% 29.99 in 7.0 mi ENE 3.5 mph - N/A   Clear
6:53 AM 75.0 °F - 70.0 °F 84% 30.00 in 10.0 mi Calm Calm - N/A   Partly Cloudy
7:53 AM 75.0 °F - 69.1 °F 82% 30.01 in 10.0 mi ENE 8.1 mph - N/A   Clear
8:53 AM 75.9 °F - 64.9 °F 69% 30.03 in 10.0 mi East 12.7 mph - N/A   Partly Cloudy
9:53 AM 72.0 °F - 64.0 °F 76% 30.05 in 7.0 mi ENE 9.2 mph - 0.02 in Rain Light Rain
10:53 AM 72.0 °F - 63.0 °F 73% 30.06 in 10.0 mi East 11.5 mph 18.4 mph 0.05 in   Overcast
11:53 AM 78.1 °F - 60.1 °F 54% 30.04 in 10.0 mi ENE 11.5 mph - N/A   Mostly Cloudy
12:53 PM 82.0 °F 82.1 °F 59.0 °F 45% 30.02 in 10.0 mi Variable 4.6 mph - N/A   Partly Cloudy
1:53 PM 86.0 °F 85.4 °F 59.0 °F 40% 29.99 in 10.0 mi ENE 10.4 mph - N/A   Clear
2:53 PM 87.1 °F 86.5 °F 59.0 °F 39% 29.96 in 10.0 mi ENE 8.1 mph - N/A   Clear
3:53 PM 88.0 °F 87.6 °F 60.1 °F 39% 29.93 in 10.0 mi ENE 9.2 mph - N/A   Clear
4:53 PM 89.1 °F 88.2 °F 59.0 °F 36% 29.91 in 10.0 mi Variable 3.5 mph - N/A   Clear
5:53 PM 88.0 °F 86.9 °F 57.9 °F 36% 29.91 in 10.0 mi East 6.9 mph - N/A   Clear
6:53 PM 84.9 °F 84.4 °F 59.0 °F 41% 29.91 in 10.0 mi ESE 5.8 mph - N/A   Clear
7:53 PM 80.1 °F 81.1 °F 61.0 °F 52% 29.93 in 10.0 mi ENE 5.8 mph - N/A   Partly Cloudy
8:53 PM 77.0 °F - 61.0 °F 58% 29.96 in 10.0 mi East 8.1 mph - N/A   Clear
9:53 PM 75.9 °F - 54.0 °F 46% 29.98 in 10.0 mi East 12.7 mph 18.4 mph N/A   Clear
10:53 PM 73.0 °F - 54.0 °F 51% 30.00 in 10.0 mi East 8.1 mph - N/A   Clear
11:53 PM 68.0 °F - 55.0 °F 63% 30.00 in 10.0 mi East 8.1 mph - N/A   Clear